Regional Weather Roundup
Issued by NWS

Home | Current Version | Previous Version | Text Only | Print | Product List | Glossary On
Versions: 1 2 3 4 5 6 7 8 9 10 11 12 13 14 15 16 17 18 19 20 21 22 23 24 25 26 27 28 29 30 31 32 33 34 35 36 37 38 39 40 41 42 43 44 45 46 47 48 49 50
000
ASUS45 KABQ 040410
RWRNM
NEW MEXICO REGIONAL WEATHER ROUNDUP
NATIONAL WEATHER SERVICE ALBUQUERQUE NM
1000 PM MDT THU SEP 03 2015

NOTE: "FAIR" MEANS FEW OR NO CLOUDS BELOW 12,000 FEET AGL WITH NO
       SIGNIFICANT WEATHER OR OBSTRUCTIONS TO VISION.

      THIS PRODUCT IS RELEASED AS TWO VERSIONS.  ONE VERSION NEAR
      THE TOP OF THE HOUR CONTAINING PRELIMINARY DATA FROM ALBUQUERQUE
      AND OTHER STATIONS.  A FINAL VERSION WITH ADDITIONAL DATA IS
      ISSUED ABOUT 10 MINUTES AFTER THE HOUR.

NMZ501-503-504-510>518-040500-
NORTHWEST PLATEAU/NORTHCENTRAL MOUNTAINS

CITY           SKY/WX    TMP DP  RH WIND       PRES   REMARKS
FARMINGTON     CLEAR     75  38  26 S3        30.04R
LOS ALAMOS     MOCLDY    69  35  28 W8        30.19S
SANTA FE       MOCLDY    69  31  24 SW3       30.13R
TAOS           PTCLDY    61  39  44 N8        30.20S
ANGEL FIRE     FAIR      47  42  82 CALM      30.29R

$$
NMZ402-403-502-505>509-040500-
WESTCENTRAL MOUNTAINS/SOUTHWEST MOUNTAINS

CITY           SKY/WX    TMP DP  RH WIND       PRES   REMARKS
GALLUP         CLOUDY    63  49  60 S9        30.18S
GRANTS         CLOUDY    66  49  53 W9G16     30.18S
SILVER CITY      N/A     68  55  64 NW14      30.16R

$$
NMZ407-409-411-412-040500-
SOUTHERN DESERTS

CITY           SKY/WX    TMP DP  RH WIND       PRES   REMARKS
LORDSBURG      MOCLDY    70  55  60 NW5       30.08S
DEMING         CLOUDY    75  54  47 W8        30.07R
LAS CRUCES     CLOUDY    78  51  39 W5        30.07R
HOLLOMAN AFB   CLOUDY    81  51  34 W2        30.00R
ALAMOGORDO     MOCLDY    79  50  36 SE5       30.03S
T OR C         MOCLDY    69  57  65 NW14      30.07R

$$
NMZ519>523-040500-
CENTRAL VALLEYS/CENTRAL HIGHLANDS

CITY           SKY/WX    TMP DP  RH WIND       PRES   REMARKS
ALBUQUERQUE    CLOUDY    78  45  30 S15       30.09R
DOUBLE EAGLE   MOCLDY    73  46  38 SW16      30.11R
MORIARTY ARPT  FAIR      66  41  39 SW7       30.15R
CLINES CORNERS PTCLDY    65  42  43 SW12      30.19R
BELEN          CLOUDY    75  47  37 W17       30.09R
SOCORRO        MOCLDY    73  51  44 E6        30.08S

$$
NMZ524>526-539-540-040500-
SOUTHCENTRAL MOUNTAINS

CITY           SKY/WX    TMP DP  RH WIND       PRES   REMARKS
RUIDOSO        MOCLDY    68  45  42 SW9       30.22S

$$
NMZ527>531-040500-
NORTHEAST HIGHLANDS/NORTHEAST PLAINS

CITY           SKY/WX    TMP DP  RH WIND       PRES   REMARKS
LAS VEGAS      PTCLDY    63  44  50 SW9       30.17R
RATON          CLEAR     70  44  39 NW3       30.09R
CLAYTON        MOCLDY    69  50  50 S10       29.99R

$$
NMZ532>537-040500-
EASTCENTRAL PLAINS

CITY           SKY/WX    TMP DP  RH WIND       PRES   REMARKS
TUCUMCARI      MOCLDY    79  49  34 S7        29.95R
CANNON AFB     CLOUDY    78  53  41 S13       30.02R
CLOVIS AIRPORT CLOUDY    79  52  38 S13       30.03S

$$
NMZ028-029-538-040500-
SOUTHEAST PLAINS

CITY           SKY/WX    TMP DP  RH WIND       PRES   REMARKS
ROSWELL        CLOUDY    84  46  26 S14       29.95R
ARTESIA        CLOUDY    84  46  26 SE13      29.96R
CARLSBAD       MOCLDY    80  45  28 S6        29.94R
HOBBS          MOCLDY    75  50  41 CALM      30.01R


$$


USA.gov is the U.S. government's official web portal to all federal, state and local government web resources and services.